Location: Kaseke
(18.0171°S, 31.0526°E)
Time: 12:15:41
(UTC+00:00)

GPS 2-18 Rocket1 - Pass Details

Date: 14 July 2020
Orbit: 459 x 516 km, 20.9° (Epoch: 07 August)

Event Time Altitude Azimuth Distance (km) Brightness Sun altitude
Exits shadow 03:02:33 53° 204° (SSW) 611 3.2 -19.9°
Maximum altitude 03:02:52 55° 182° (S) 596 3.3 -19.8°
Drops below altitude 10° 03:06:45 10° 103° (ESE) 1,702 6.7 -18.9°
Sets 03:09:02 0° 98° (E) 2,595 7.9 -18.4°
